GEL905 LROP-EPKK

Flight info

Callsign GEL905
Flight time N/A
Altitude 32000
Route SOKRU DCT LARMU DCT KENIN DCT LENOV
Aircraft B742/H-SDFHIRWXY/L

Departure

Time 2026-05-07 17:48
Airport Bucharest Henri Coandă International Airport (LROP)

Arrival

Time N/A
Airport Kraków John Paul II International Airport (EPKK)
Time Latitude Longitude Altitude Speed Heading
2026-05-07 17:12 44.56926 26.09524 312 ft 0 kts 175°
2026-05-07 17:33 44.56932 26.09524 312 ft 2 kts 175°
2026-05-07 17:34 44.56942 26.09522 312 ft 2 kts 175°
2026-05-07 17:34 44.56957 26.09518 312 ft 2 kts 155°
2026-05-07 17:34 44.56970 26.09506 312 ft 2 kts 136°
2026-05-07 17:34 44.56980 26.09489 312 ft 2 kts 118°
2026-05-07 17:35 44.56985 26.09469 312 ft 2 kts 101°
2026-05-07 17:35 44.56986 26.09451 312 ft 0 kts 85°
2026-05-07 17:35 44.56986 26.09444 312 ft 0 kts 85°
2026-05-07 17:35 44.56986 26.09443 312 ft 0 kts 86°
2026-05-07 17:40 44.56987 26.09457 312 ft 3 kts 85°
2026-05-07 17:40 44.56990 26.09512 312 ft 7 kts 85°
2026-05-07 17:40 44.56997 26.09612 312 ft 11 kts 84°
2026-05-07 17:41 44.57007 26.09742 312 ft 14 kts 84°
2026-05-07 17:41 44.57016 26.09851 312 ft 11 kts 73°
2026-05-07 17:41 44.57085 26.09898 312 ft 13 kts 356°
2026-05-07 17:41 44.57182 26.09885 313 ft 14 kts 353°
2026-05-07 17:42 44.57290 26.09868 315 ft 15 kts 354°
2026-05-07 17:42 44.57402 26.09852 317 ft 15 kts 354°
2026-05-07 17:42 44.57499 26.09838 319 ft 12 kts 355°
2026-05-07 17:42 44.57574 26.09798 319 ft 10 kts 308°
2026-05-07 17:43 44.57585 26.09701 318 ft 9 kts 265°
2026-05-07 17:43 44.57577 26.09598 316 ft 11 kts 263°
2026-05-07 17:43 44.57568 26.09494 316 ft 10 kts 263°
2026-05-07 17:43 44.57561 26.09400 316 ft 8 kts 264°
2026-05-07 17:44 44.57556 26.09314 316 ft 9 kts 264°
2026-05-07 17:44 44.57548 26.09205 316 ft 12 kts 264°
2026-05-07 17:44 44.57537 26.09064 316 ft 15 kts 264°
2026-05-07 17:44 44.57524 26.08892 316 ft 19 kts 263°
2026-05-07 17:45 44.57510 26.08720 316 ft 15 kts 264°
2026-05-07 17:45 44.57500 26.08578 316 ft 11 kts 264°
2026-05-07 17:45 44.57501 26.08496 316 ft 5 kts 301°
2026-05-07 17:45 44.57525 26.08468 316 ft 0 kts 341°
2026-05-07 17:46 44.57528 26.08466 316 ft 1 kts 342°
2026-05-07 17:46 44.57544 26.08461 316 ft 3 kts 348°
2026-05-07 17:47 44.57592 26.08451 316 ft 9 kts 352°
2026-05-07 17:47 44.57662 26.08492 316 ft 14 kts 71°
2026-05-07 17:47 44.57696 26.08891 316 ft 82 kts 84°
2026-05-07 17:47 44.57790 26.10102 321 ft 159 kts 83°
2026-05-07 17:48 44.57902 26.11853 714 ft 187 kts 86°
2026-05-07 17:48 44.57912 26.13774 1286 ft 209 kts 91°
2026-05-07 17:48 44.57851 26.15968 1893 ft 230 kts 93°
2026-05-07 17:48 44.57721 26.18273 2751 ft 241 kts 94°
2026-05-07 17:49 44.57653 26.20687 3503 ft 255 kts 87°
2026-05-07 17:49 44.57829 26.23151 4631 ft 250 kts 79°
2026-05-07 17:49 44.58169 26.25607 5366 ft 267 kts 78°
2026-05-07 17:49 44.58585 26.28259 6098 ft 282 kts 76°
2026-05-07 17:50 44.59103 26.31029 6868 ft 293 kts 68°
2026-05-07 17:50 44.60337 26.33081 8155 ft 277 kts 26°
2026-05-07 17:50 44.62259 26.33788 8366 ft 289 kts
2026-05-07 17:50 44.64173 26.33471 8306 ft 265 kts 342°
2026-05-07 17:51 44.65906 26.32545 8186 ft 256 kts 338°
2026-05-07 17:51 44.67572 26.31557 8038 ft 253 kts 337°
2026-05-07 17:51 44.69190 26.30552 7942 ft 254 kts 335°
2026-05-07 17:51 44.70813 26.29430 7644 ft 260 kts 333°
2026-05-07 17:52 44.72363 26.28010 6794 ft 274 kts 319°
2026-05-07 17:52 44.73607 26.25873 5800 ft 288 kts 293°
2026-05-07 17:52 44.73888 26.23094 5215 ft 282 kts 264°
2026-05-07 17:52 44.73665 26.20427 5150 ft 259 kts 262°
2026-05-07 17:53 44.73397 26.17921 4595 ft 258 kts 260°
2026-05-07 17:53 44.73083 26.15426 4094 ft 252 kts 258°
2026-05-07 17:53 44.72709 26.13048 3913 ft 241 kts 256°
2026-05-07 17:53 44.72319 26.10714 3807 ft 240 kts 257°
2026-05-07 17:54 44.71995 26.08383 3753 ft 237 kts 259°